Time,TemperatureF,DewpointF,PressureIn,WindDirection,WindDirectionDegrees,WindSpeedMPH,WindSpeedGustMPH,Humidity,HourlyPrecipIn,Conditions,Clouds,dailyrainin,SoftwareType,DateUTC
2013-06-04 00:02:00,58.0,43.0,29.84,ESE,115,15.0,-999.0,58,-99.99,,,-99.99,,2013-06-04 05:02:00,
2013-06-04 00:12:00,58.0,43.0,29.85,East,86,16.0,-999.0,59,-99.99,,,-99.99,,2013-06-04 05:12:00,
2013-06-04 00:22:00,58.0,43.0,29.85,East,98,12.0,-999.0,59,-99.99,,,-99.99,,2013-06-04 05:22:00,
2013-06-04 00:32:00,57.0,44.0,29.85,East,92,17.0,-999.0,60,-99.99,,,-99.99,,2013-06-04 05:32:00,
2013-06-04 00:42:00,57.0,45.0,29.87,East,85,14.0,-999.0,63,-99.99,,,-99.99,,2013-06-04 05:42:00,
2013-06-04 00:52:00,56.0,45.0,29.87,East,83,16.0,-999.0,66,-99.99,,,-99.99,,2013-06-04 05:52:00,
2013-06-04 01:02:00,56.0,45.0,29.89,East,86,14.0,-999.0,67,-99.99,,,-99.99,,2013-06-04 06:02:00,
2013-06-04 01:12:00,56.0,46.0,29.89,East,87,18.0,-999.0,69,-99.99,,,-99.99,,2013-06-04 06:12:00,
2013-06-04 01:22:00,55.0,48.0,29.89,East,97,16.0,-999.0,77,-99.99,,,-99.99,,2013-06-04 06:22:00,
2013-06-04 01:32:00,54.0,48.0,29.89,ESE,106,9.0,-999.0,81,-99.99,,,-99.99,,2013-06-04 06:32:00,
2013-06-04 01:42:00,54.0,48.0,29.88,ESE,108,14.0,-999.0,81,-99.99,,,-99.99,,2013-06-04 06:42:00,
2013-06-04 01:52:00,55.0,47.0,29.87,East,91,17.0,-999.0,75,-99.99,,,-99.99,,2013-06-04 06:52:00,
2013-06-04 02:02:00,55.0,47.0,29.86,ESE,106,18.0,-999.0,76,-99.99,,,-99.99,,2013-06-04 07:02:00,
2013-06-04 02:12:00,54.0,47.0,29.85,ESE,117,19.0,-999.0,77,-99.99,,,-99.99,,2013-06-04 07:12:00,
2013-06-04 02:22:00,54.0,47.0,29.85,ESE,116,24.0,-999.0,78,-99.99,,,-99.99,,2013-06-04 07:22:00,
2013-06-04 02:32:00,54.0,47.0,29.84,ESE,118,24.0,-999.0,76,-99.99,,,-99.99,,2013-06-04 07:32:00,
2013-06-04 02:42:00,55.0,47.0,29.84,ESE,115,29.0,-999.0,75,-99.99,,,-99.99,,2013-06-04 07:42:00,
2013-06-04 02:52:00,55.0,47.0,29.84,ESE,116,20.0,-999.0,76,-99.99,,,-99.99,,2013-06-04 07:52:00,
2013-06-04 03:02:00,55.0,47.0,29.84,ESE,117,22.0,-999.0,76,-99.99,,,-99.99,,2013-06-04 08:02:00,
2013-06-04 03:12:00,55.0,48.0,29.86,ESE,109,10.0,-999.0,77,-99.99,,,-99.99,,2013-06-04 08:12:00,
2013-06-04 03:22:00,54.0,48.0,29.91,NNW,329,19.0,-999.0,79,-99.99,,,-99.99,,2013-06-04 08:22:00,
2013-06-04 03:32:00,55.0,47.0,29.89,NE,53,14.0,-999.0,75,-99.99,,,-99.99,,2013-06-04 08:32:00,
2013-06-04 03:42:00,54.0,49.0,29.89,East,81,15.0,-999.0,84,-99.99,,,-99.99,,2013-06-04 08:42:00,
2013-06-04 03:52:00,54.0,48.0,29.89,ENE,72,13.0,-999.0,81,-99.99,,,-99.99,,2013-06-04 08:52:00,
2013-06-04 04:02:00,54.0,49.0,29.89,NE,55,16.0,-999.0,83,-99.99,,,-99.99,,2013-06-04 09:02:00,
2013-06-04 04:12:00,53.0,50.0,29.88,ENE,69,20.0,-999.0,88,-99.99,,,-99.99,,2013-06-04 09:12:00,
2013-06-04 04:22:00,53.0,50.0,29.87,ENE,77,18.0,-999.0,87,-99.99,,,-99.99,,2013-06-04 09:22:00,
2013-06-04 04:33:00,53.0,50.0,29.87,East,80,16.0,-999.0,89,-99.99,,,-99.99,,2013-06-04 09:33:00,
2013-06-04 04:43:00,53.0,50.0,29.86,ENE,64,18.0,-999.0,89,-99.99,,,-99.99,,2013-06-04 09:43:00,
2013-06-04 04:53:00,53.0,50.0,29.85,ENE,70,18.0,-999.0,91,-99.99,,,-99.99,,2013-06-04 09:53:00,
2013-06-04 05:02:00,53.0,50.0,29.84,East,81,23.0,-999.0,90,-99.99,,,-99.99,,2013-06-04 10:02:00,
2013-06-04 05:12:00,52.0,50.0,29.84,ENE,74,22.0,-999.0,91,-99.99,,,-99.99,,2013-06-04 10:12:00,
2013-06-04 05:23:00,52.0,50.0,29.84,East,81,19.0,-999.0,93,-99.99,,,-99.99,,2013-06-04 10:23:00,
2013-06-04 05:33:00,53.0,50.0,29.84,East,80,20.0,-999.0,90,-99.99,,,-99.99,,2013-06-04 10:33:00,
2013-06-04 05:42:00,53.0,50.0,29.84,ENE,74,18.0,-999.0,92,-99.99,,,-99.99,,2013-06-04 10:42:00,
2013-06-04 05:52:00,53.0,50.0,29.84,ENE,75,18.0,-999.0,91,-99.99,,,-99.99,,2013-06-04 10:52:00,
2013-06-04 06:02:00,53.0,50.0,29.85,ENE,76,18.0,-999.0,90,-99.99,,,-99.99,,2013-06-04 11:02:00,
2013-06-04 06:12:00,53.0,50.0,29.84,ENE,78,17.0,-999.0,92,-99.99,,,-99.99,,2013-06-04 11:12:00,
2013-06-04 06:22:00,52.0,51.0,29.85,ENE,76,14.0,-999.0,94,-99.99,,,-99.99,,2013-06-04 11:22:00,
2013-06-04 06:32:00,52.0,51.0,29.85,ENE,75,13.0,-999.0,94,-99.99,,,-99.99,,2013-06-04 11:32:00,
2013-06-04 06:42:00,53.0,51.0,29.85,East,88,18.0,-999.0,93,-99.99,,,-99.99,,2013-06-04 11:42:00,
2013-06-04 06:52:00,53.0,51.0,29.86,East,83,17.0,-999.0,94,-99.99,,,-99.99,,2013-06-04 11:52:00,
2013-06-04 07:02:00,53.0,51.0,29.86,East,88,14.0,-999.0,93,-99.99,,,-99.99,,2013-06-04 12:02:00,
2013-06-04 07:12:00,53.0,51.0,29.86,ENE,78,18.0,-999.0,91,-99.99,,,-99.99,,2013-06-04 12:12:00,
2013-06-04 07:22:00,53.0,51.0,29.86,East,91,10.0,-999.0,94,-99.99,,,-99.99,,2013-06-04 12:22:00,
2013-06-04 07:32:00,53.0,51.0,29.86,East,97,11.0,-999.0,93,-99.99,,,-99.99,,2013-06-04 12:32:00,
2013-06-04 07:42:00,53.0,51.0,29.87,ESE,104,13.0,-999.0,92,-99.99,,,-99.99,,2013-06-04 12:42:00,
2013-06-04 07:52:00,53.0,51.0,29.87,East,97,7.0,-999.0,92,-99.99,,,-99.99,,2013-06-04 12:52:00,
2013-06-04 08:02:00,53.0,51.0,29.87,ESE,109,12.0,-999.0,93,-99.99,,,-99.99,,2013-06-04 13:02:00,
2013-06-04 08:12:00,54.0,52.0,29.87,East,80,10.0,-999.0,93,-99.99,,,-99.99,,2013-06-04 13:12:00,
2013-06-04 08:22:00,54.0,52.0,29.86,East,99,11.0,-999.0,94,-99.99,,,-99.99,,2013-06-04 13:22:00,
2013-06-04 08:32:00,54.0,52.0,29.86,East,80,14.0,-999.0,95,-99.99,,,-99.99,,2013-06-04 13:32:00,
2013-06-04 08:42:00,54.0,52.0,29.87,ENE,74,12.0,-999.0,96,-99.99,,,-99.99,,2013-06-04 13:42:00,
2013-06-04 08:52:00,54.0,53.0,29.87,East,90,11.0,-999.0,97,-99.99,,,-99.99,,2013-06-04 13:52:00,
2013-06-04 09:02:00,54.0,53.0,29.86,East,99,14.0,-999.0,97,-99.99,,,-99.99,,2013-06-04 14:02:00,
2013-06-04 09:12:00,54.0,53.0,29.86,East,96,20.0,-999.0,98,-99.99,,,-99.99,,2013-06-04 14:12:00,
2013-06-04 09:22:00,54.0,53.0,29.86,East,94,14.0,-999.0,98,-99.99,,,-99.99,,2013-06-04 14:22:00,
2013-06-04 09:32:00,54.0,53.0,29.86,East,101,20.0,-999.0,98,-99.99,,,-99.99,,2013-06-04 14:32:00,
2013-06-04 09:42:00,54.0,54.0,29.86,ESE,112,14.0,-999.0,99,-99.99,,,-99.99,,2013-06-04 14:42:00,
2013-06-04 09:52:00,54.0,54.0,29.86,ESE,112,14.0,-999.0,99,-99.99,,,-99.99,,2013-06-04 14:52:00,
2013-06-04 10:02:00,54.0,54.0,29.87,ESE,113,21.0,-999.0,98,-99.99,,,-99.99,,2013-06-04 15:02:00,
2013-06-04 10:12:00,54.0,-99.9,29.87,SE,124,18.0,-999.0,-999,-99.99,,,-99.99,,2013-06-04 15:12:00,
2013-06-04 10:22:00,55.0,-99.9,29.87,ESE,113,21.0,-999.0,-999,-99.99,,,-99.99,,2013-06-04 15:22:00,
2013-06-04 10:33:00,55.0,54.0,29.88,ESE,119,14.0,-999.0,98,-99.99,,,-99.99,,2013-06-04 15:33:00,
2013-06-04 10:42:00,55.0,55.0,29.87,ESE,118,17.0,-999.0,97,-99.99,,,-99.99,,2013-06-04 15:42:00,
2013-06-04 10:53:00,55.0,55.0,29.87,ESE,118,17.0,-999.0,97,-99.99,,,-99.99,,2013-06-04 15:53:00,
2013-06-04 11:03:00,56.0,55.0,29.86,SE,124,17.0,-999.0,95,-99.99,,,-99.99,,2013-06-04 16:03:00,
2013-06-04 11:12:00,57.0,55.0,29.87,SE,132,14.0,-999.0,94,-99.99,,,-99.99,,2013-06-04 16:12:00,
2013-06-04 11:23:00,58.0,56.0,29.86,ESE,118,17.0,-999.0,93,-99.99,,,-99.99,,2013-06-04 16:23:00,
2013-06-04 11:33:00,58.0,56.0,29.87,ESE,117,16.0,-999.0,92,-99.99,,,-99.99,,2013-06-04 16:33:00,
2013-06-04 11:42:00,59.0,56.0,29.87,ESE,122,15.0,-999.0,92,-99.99,,,-99.99,,2013-06-04 16:42:00,
2013-06-04 11:52:00,58.0,56.0,29.87,ESE,122,19.0,-999.0,91,-99.99,,,-99.99,,2013-06-04 16:52:00,
2013-06-04 12:03:00,58.0,56.0,29.87,SE,124,21.0,-999.0,91,-99.99,,,-99.99,,2013-06-04 17:03:00,
2013-06-04 12:12:00,58.0,56.0,29.87,SE,131,22.0,-999.0,92,-99.99,,,-99.99,,2013-06-04 17:12:00,
2013-06-04 12:23:00,59.0,57.0,29.87,SE,132,22.0,-999.0,93,-99.99,,,-99.99,,2013-06-04 17:23:00,
2013-06-04 12:33:00,58.0,56.0,29.86,SE,139,22.0,-999.0,93,-99.99,,,-99.99,,2013-06-04 17:33:00,
2013-06-04 12:42:00,59.0,57.0,29.87,SE,131,15.0,-999.0,93,-99.99,,,-99.99,,2013-06-04 17:42:00,
2013-06-04 12:52:00,59.0,57.0,29.87,ESE,122,17.0,-999.0,95,-99.99,,,-99.99,,2013-06-04 17:52:00,
2013-06-04 13:02:00,59.0,57.0,29.86,ESE,118,19.0,-999.0,95,-99.99,,,-99.99,,2013-06-04 18:02:00,
2013-06-04 13:12:00,60.0,58.0,29.86,ESE,119,20.0,-999.0,94,-99.99,,,-99.99,,2013-06-04 18:12:00,
2013-06-04 13:22:00,60.0,58.0,29.86,SE,134,19.0,-999.0,93,-99.99,,,-99.99,,2013-06-04 18:22:00,
2013-06-04 13:32:00,59.0,58.0,29.86,SE,124,20.0,-999.0,94,-99.99,,,-99.99,,2013-06-04 18:32:00,
2013-06-04 13:42:00,60.0,58.0,29.86,ESE,117,17.0,-999.0,92,-99.99,,,-99.99,,2013-06-04 18:42:00,
2013-06-04 13:52:00,61.0,59.0,29.86,ESE,116,15.0,-999.0,93,-99.99,,,-99.99,,2013-06-04 18:52:00,
2013-06-04 14:02:00,60.0,58.0,29.86,ESE,113,14.0,-999.0,94,-99.99,,,-99.99,,2013-06-04 19:02:00,
2013-06-04 14:12:00,60.0,58.0,29.86,ESE,105,16.0,-999.0,94,-99.99,,,-99.99,,2013-06-04 19:12:00,
2013-06-04 14:22:00,59.0,58.0,29.86,ESE,108,16.0,-999.0,94,-99.99,,,-99.99,,2013-06-04 19:22:00,
2013-06-04 14:32:00,61.0,58.0,29.86,East,89,14.0,-999.0,92,-99.99,,,-99.99,,2013-06-04 19:32:00,
2013-06-04 14:42:00,62.0,58.0,29.85,ESE,115,26.0,-999.0,88,-99.99,,,-99.99,,2013-06-04 19:42:00,
2013-06-04 14:52:00,63.0,58.0,29.86,ESE,112,19.0,-999.0,86,-99.99,,,-99.99,,2013-06-04 19:52:00,
2013-06-04 15:03:00,63.0,60.0,29.85,East,79,18.0,-999.0,87,-99.99,,,-99.99,,2013-06-04 20:03:00,
2013-06-04 15:12:00,64.0,59.0,29.85,ESE,123,21.0,-999.0,83,-99.99,,,-99.99,,2013-06-04 20:12:00,
2013-06-04 15:22:00,65.0,59.0,29.84,ESE,111,22.0,-999.0,83,-99.99,,,-99.99,,2013-06-04 20:22:00,
2013-06-04 15:32:00,66.0,59.0,29.85,SE,128,17.0,-999.0,79,-99.99,,,-99.99,,2013-06-04 20:32:00,
2013-06-04 15:42:00,66.0,59.0,29.84,ESE,121,19.0,-999.0,79,-99.99,,,-99.99,,2013-06-04 20:42:00,
2013-06-04 15:52:00,66.0,59.0,29.84,ESE,120,25.0,-999.0,80,-99.99,,,-99.99,,2013-06-04 20:52:00,
2013-06-04 16:02:00,65.0,59.0,29.84,SE,131,22.0,-999.0,80,-99.99,,,-99.99,,2013-06-04 21:02:00,
2013-06-04 16:12:00,65.0,60.0,29.84,ESE,112,23.0,-999.0,83,-99.99,,,-99.99,,2013-06-04 21:12:00,
2013-06-04 16:22:00,64.0,59.0,29.84,ESE,104,18.0,-999.0,84,-99.99,,,-99.99,,2013-06-04 21:22:00,
2013-06-04 16:33:00,66.0,60.0,29.84,ESE,109,17.0,-999.0,82,-99.99,,,-99.99,,2013-06-04 21:33:00,
2013-06-04 16:42:00,65.0,60.0,29.84,ESE,118,20.0,-999.0,83,-99.99,,,-99.99,,2013-06-04 21:42:00,
2013-06-04 16:53:00,65.0,59.0,29.84,East,100,16.0,-999.0,82,-99.99,,,-99.99,,2013-06-04 21:53:00,
2013-06-04 17:02:00,66.0,60.0,29.83,ESE,102,18.0,-999.0,81,-99.99,,,-99.99,,2013-06-04 22:02:00,
2013-06-04 17:12:00,66.0,60.0,29.84,ESE,122,15.0,-999.0,82,-99.99,,,-99.99,,2013-06-04 22:12:00,
2013-06-04 17:22:00,65.0,60.0,29.83,East,91,18.0,-999.0,82,-99.99,,,-99.99,,2013-06-04 22:22:00,
2013-06-04 17:32:00,65.0,60.0,29.84,ESE,119,18.0,-999.0,84,-99.99,,,-99.99,,2013-06-04 22:32:00,
2013-06-04 17:42:00,65.0,60.0,29.84,ESE,121,21.0,-999.0,84,-99.99,,,-99.99,,2013-06-04 22:42:00,
2013-06-04 17:52:00,65.0,60.0,29.84,ESE,121,21.0,-999.0,84,-99.99,,,-99.99,,2013-06-04 22:52:00,
2013-06-04 18:02:00,67.0,60.0,29.83,ESE,107,17.0,-999.0,78,-99.99,,,-99.99,,2013-06-04 23:02:00,
2013-06-04 18:12:00,66.0,60.0,29.84,ESE,117,11.0,-999.0,80,-99.99,,,-99.99,,2013-06-04 23:12:00,
2013-06-04 18:22:00,66.0,60.0,29.83,SE,128,15.0,-999.0,80,-99.99,,,-99.99,,2013-06-04 23:22:00,
2013-06-04 18:32:00,65.0,61.0,29.83,ESE,110,14.0,-999.0,84,-99.99,,,-99.99,,2013-06-04 23:32:00,
2013-06-04 18:42:00,65.0,61.0,29.83,ESE,118,13.0,-999.0,87,-99.99,,,-99.99,,2013-06-04 23:42:00,
2013-06-04 18:52:00,65.0,60.0,29.83,ESE,116,8.0,-999.0,84,-99.99,,,-99.99,,2013-06-04 23:52:00,
2013-06-04 19:02:00,65.0,60.0,29.83,East,97,11.0,-999.0,86,-99.99,,,-99.99,,2013-06-05 00:02:00,
2013-06-04 19:12:00,65.0,61.0,29.83,SSE,150,2.0,-999.0,85,-99.99,,,-99.99,,2013-06-05 00:12:00,
2013-06-04 19:22:00,67.0,50.0,29.83,WSW,253,9.0,-999.0,53,-99.99,,,-99.99,,2013-06-05 00:22:00,
2013-06-04 19:32:00,70.0,47.0,29.83,WSW,247,13.0,-999.0,44,-99.99,,,-99.99,,2013-06-05 00:32:00,
2013-06-04 19:42:00,68.0,46.0,29.83,WSW,245,14.0,-999.0,45,-99.99,,,-99.99,,2013-06-05 00:42:00,
2013-06-04 19:52:00,68.0,46.0,29.83,WSW,245,14.0,-999.0,45,-99.99,,,-99.99,,2013-06-05 00:52:00,
2013-06-04 20:02:00,68.0,47.0,29.84,SW,233,12.0,-999.0,46,-99.99,,,-99.99,,2013-06-05 01:02:00,
2013-06-04 20:12:00,67.0,45.0,29.84,WSW,237,14.0,-999.0,45,-99.99,,,-99.99,,2013-06-05 01:12:00,
2013-06-04 20:22:00,67.0,45.0,29.84,WSW,243,12.0,-999.0,46,-99.99,,,-99.99,,2013-06-05 01:22:00,
2013-06-04 20:32:00,66.0,46.0,29.84,WSW,258,13.0,-999.0,48,-99.99,,,-99.99,,2013-06-05 01:32:00,
2013-06-04 20:42:00,66.0,46.0,29.84,WSW,246,14.0,-999.0,48,-99.99,,,-99.99,,2013-06-05 01:42:00,
2013-06-04 20:52:00,66.0,46.0,29.84,WSW,246,14.0,-999.0,48,-99.99,,,-99.99,,2013-06-05 01:52:00,
2013-06-04 21:02:00,65.0,46.0,29.85,WSW,243,9.0,-999.0,51,-99.99,,,-99.99,,2013-06-05 02:02:00,
2013-06-04 21:12:00,64.0,47.0,29.85,WSW,250,7.0,-999.0,55,-99.99,,,-99.99,,2013-06-05 02:12:00,
2013-06-04 21:22:00,63.0,48.0,29.86,WSW,244,7.0,-999.0,57,-99.99,,,-99.99,,2013-06-05 02:22:00,
2013-06-04 21:32:00,63.0,48.0,29.86,WSW,256,6.0,-999.0,59,-99.99,,,-99.99,,2013-06-05 02:32:00,
2013-06-04 21:42:00,62.0,49.0,29.86,West,262,12.0,-999.0,62,-99.99,,,-99.99,,2013-06-05 02:42:00,
2013-06-04 21:52:00,62.0,49.0,29.86,West,262,12.0,-999.0,62,-99.99,,,-99.99,,2013-06-05 02:52:00,
2013-06-04 22:02:00,61.0,49.0,29.87,WNW,283,6.0,-999.0,64,-99.99,,,-99.99,,2013-06-05 03:02:00,
2013-06-04 22:12:00,61.0,50.0,29.88,West,280,10.0,-999.0,67,-99.99,,,-99.99,,2013-06-05 03:12:00,
2013-06-04 22:22:00,60.0,50.0,29.88,WNW,293,10.0,-999.0,69,-99.99,,,-99.99,,2013-06-05 03:22:00,
2013-06-04 22:33:00,60.0,50.0,29.89,West,278,7.0,-999.0,71,-99.99,,,-99.99,,2013-06-05 03:33:00,
2013-06-04 22:43:00,59.0,50.0,29.89,West,277,4.0,-999.0,73,-99.99,,,-99.99,,2013-06-05 03:43:00,
2013-06-04 22:53:00,59.0,50.0,29.90,NW,317,4.0,-999.0,74,-99.99,,,-99.99,,2013-06-05 03:53:00,
2013-06-04 23:02:00,58.0,51.0,29.90,WNW,288,4.0,-999.0,75,-99.99,,,-99.99,,2013-06-05 04:02:00,
2013-06-04 23:13:00,58.0,50.0,29.90,NW,317,5.0,-999.0,75,-99.99,,,-99.99,,2013-06-05 04:13:00,
2013-06-04 23:23:00,58.0,50.0,29.91,WNW,290,3.0,-999.0,75,-99.99,,,-99.99,,2013-06-05 04:23:00,
2013-06-04 23:33:00,58.0,50.0,29.90,WNW,289,4.0,-999.0,75,-99.99,,,-99.99,,2013-06-05 04:33:00,
2013-06-04 23:42:00,58.0,50.0,29.90,West,272,5.0,-999.0,75,-99.99,,,-99.99,,2013-06-05 04:42:00,
2013-06-04 23:53:00,58.0,50.0,29.90,West,272,5.0,-999.0,75,-99.99,,,-99.99,,2013-06-05 04:53:00,